Follow iAlert.com on twitter @ialertcom
Search For Active Alerts in Your Area  
  Hi Guest:  [ Sign-up / Services ] [ Login ]

Current weather by "City, St" or "zip code"  
 

Advertise Here

Current Conditions: Reading, Reading Regional Airport, PA

Rain Fog/Mist


45.0 F

Last Updated on Feb 25 2018, 3:54 am EST
Humidity: 100%
Wind Speed: E 4.6 mph
Barometer 30.05 in
Dewpoint: 45.0 F
Visibility: 6.00 mi
Precip: --
Heat Index: NA
Wind Chill: 43 F
Current conditions at:

Reading, Reading Regional Airport, PA (KRDG)

Lat: 40.37 Lon: 75.959

Local Radar Image active severe weather and emergency alerts image image weather storm and storm spotter reports image weather observation monitoring service image
Local
Radar
Active
Alerts
Storm Reports Obs
Monitoring

iAlert Weather and Emergency Alert Notification Services:


ialert severe weather and emergency alerts by text message and email ialert daily weather forecast by email and text message service ialert real-time weather-observation monitoring and alert notification service ialert storm report monitoring alert notification

Observation History for Reading, Reading Regional Airport, PA


Time Wind
(mph)
Vis
(mi)
Weather Precip (in) Temperature (F) Relative
Humidity
Wind
Chill
(°F)
Heat
Index
(°F)
Pressure
Air Dwpt altimeter
(in)
sea level
(mb)
3:54 am EST E 4.6 6.00 Rain Fog/Mist -- 45.0 45.0 100% 43 NA 30.05 1018.1
2:54 am EST E 8.1 10.00 Light Rain 00.12 45.0 44.1 97% 41 NA 30.05 1018.0
1:54 am EST 3.5 10.00 Light Rain 00.01 46.0 44.1 93% NA NA 30.09 1019.7
12:54 am EST N 5.8 9.00 Overcast -- 44.0 44.1 100% 41 NA 30.12 1020.7
11:54 pm EST N 0.0 10.00 Overcast -- 46.0 44.1 93% NA NA 30.15 1021.5
10:54 pm EST E 3.5 10.00 Overcast Trace 46.0 44.1 93% NA NA 30.15 1021.4
9:54 pm EST NE 3.5 6.00 Fog/Mist Trace 45.0 45.0 100% NA NA 30.17 1022.3
8:54 pm EST N 3.5 8.00 Overcast -- 45.0 45.0 100% NA NA 30.17 1022.1
7:54 pm EST N 0.0 7.00 Overcast Trace 45.0 45.0 100% NA NA 30.17 1022.2
6:54 pm EST N 0.0 3.00 Fog/Mist 00.01 45.0 45.0 100% NA NA 30.17 1022.4
5:54 pm EST N 0.0 3.00 Light Rain Fog/Mist 00.01 47.0 45.0 93% NA NA 30.16 1022.1
4:54 pm EST E 3.5 10.00 Light Rain 00.02 47.0 46.0 97% NA NA 30.15 1021.6
3:54 pm EST NE 3.5 3.00 Rain Fog/Mist 00.02 48.0 48.0 100% NA NA 30.16 1021.9
2:54 pm EST NW 5.8 3.00 Light Rain Fog/Mist Trace 49.0 48.0 97% 47 NA 30.15 1021.6
1:54 pm EST N 0.0 10.00 Overcast -- 49.0 48.0 97% NA NA 30.12 1020.7
12:54 pm EST N 0.0 4.00 Fog/Mist Trace 48.0 48.0 100% NA NA 30.16 1022.1
11:54 am EST N 4.6 2.50 Light Rain 00.02 48.0 46.9 96% 46 NA 30.17 1022.2
10:54 am EST N 0.0 2.00 Rain Fog/Mist 00.05 46.0 46.0 100% NA NA 30.19 1022.9
9:54 am EST NW 3.5 2.00 Light Rain Fog/Mist 00.01 46.0 46.0 100% NA NA 30.18 1022.5
8:54 am EST N 0.0 2.00 Fog/Mist -- 45.0 45.0 100% NA NA 30.17 1022.5
7:54 am EST N 0.0 2.00 Fog/Mist -- 43.0 43.0 100% NA NA 30.17 1022.5
6:54 am EST N 0.0 3.00 Fog/Mist -- 42.0 42.1 100% NA NA 30.17 1022.5
5:54 am EST N 0.0 3.00 Fog/Mist -- 43.0 43.0 100% NA NA 30.17 1022.4
4:54 am EST NW 4.6 1.00 Fog/Mist -- 43.0 43.0 100% 40 NA 30.17 1022.5

Regional Weather Observation


Reading, Reading Regional Airport, PA (KRDG)

Rain Fog/Mist
45.0 F

Lancaster, Lancaster Airport, PA (KLNS)

Light Rain Fog/Mist
45.0 F

Selinsgrove Penn Valley Airport, PA (KSEG)

Light Rain Fog/Mist
43.0 F

Harrisburg, Harrisburg International Airport, PA (KMDT)

Light Rain Fog/Mist
45.0 F

Harrisburg, Capital City Airport, PA (KCXY)

Light Rain Fog/Mist
46.0 F

Allentown Queen City Municipal Airport, PA (KXLL)

Heavy Rain
43.0 F

Advertise Here